Regional Weather Roundup
Issued by NWS

Home | Current Version | Previous Version | Text Only | Print | Product List | Glossary On
Versions: 1 2 3 4 5 6 7 8 9 10 11 12 13 14 15 16 17 18 19 20 21 22 23 24 25 26 27 28 29 30 31 32 33 34 35 36 37 38 39 40 41 42 43 44 45 46 47 48 49 50
179
ASUS43 KFSD 271510
RWRSD

WEATHER ROUNDUP FOR SOUTH DAKOTA
NATIONAL WEATHER SERVICE SIOUX FALLS SD
1000 AM CDT FRI MAY 27 2016

NOTE: "FAIR" INDICATES FEW OR NO CLOUDS BELOW 12,000 FEET WITH NO
SIGNIFICANT WEATHER AND/OR OBSTRUCTIONS TO VISIBILITY.


SDZ001>005-009-010-012>017-271600-
NORTHWEST AND NORTH CENTRAL SOUTH DAKOTA

CITY           SKY/WX    TMP DP  RH WIND       PRES   REMARKS
BUFFALO          N/A     60  46  59 NW8       29.80S
FAITH            N/A     62  45  53 N16       29.81F
MOBRIDGE       MOSUNNY   63  51  65 N15       29.78R
$$

SDZ012>016-024>037-041>051-057-063-072>074-271600-
SOUTHWEST AND SOUTH CENTRAL SOUTH DAKOTA

CITY           SKY/WX    TMP DP  RH WIND       PRES   REMARKS
RAPID CTY ARPT MOSUNNY   58  45  62 N10       29.85S
PIERRE         CLOUDY    61  51  70 N12       29.77R
CUSTER         CLOUDY    55  36  48 NW8       29.90S
ELLSWORTH AFB  MOSUNNY   59  46  61 N9        29.85S
PHILIP         CLOUDY    62  48  60 N12       29.80R
PINE RIDGE     CLOUDY    57  43  59 CALM      29.85R
WINNER         LGT RAIN  59  54  83 SW12      29.84R
$$

SDZ004>011-016>023-039-040-271600-
NORTHEAST SOUTH DAKOTA

CITY           SKY/WX    TMP DP  RH WIND       PRES   REMARKS
ABERDEEN       PTSUNNY   67  56  67 N9        29.78S
WATERTOWN      CLOUDY    67  52  58 NE12      29.76F
BROOKINGS      LGT RAIN  62  58  86 S9        29.79R
SISSETON         N/A     70  55  59 VRB5      29.77R
$$

SDZ017-020-022-023-036>040-048>070-271600-
SOUTHEAST SOUTH DAKOTA

CITY           SKY/WX    TMP DP  RH WIND       PRES   REMARKS
SIOUX FALLS    LGT RAIN  63  58  83 SW5       29.79R
HURON          CLOUDY    64  59  83 MISG      29.76R
CHAMBERLAIN    RAIN      61  59  92 SW6       29.80R
MITCHELL       LGT RAIN  62  60  93 S15       29.78S FOG
YANKTON        PTSUNNY   63  57  82 SE8       29.77F
$$

ABBREVIATIONS USED IN REMARKS
   TC - TEMPERATURE IN CELSIUS
  WCI - WIND CHILL INDEX
   HX - HEAT INDEX
  VSB - VISIBILITY





USA.gov is the U.S. government's official web portal to all federal, state and local government web resources and services.